CZ-2C R/B, 62078

Orbit data source: Space-Track

CZ-2C R/B, 62078 is space debris in SSO originally from a launch on Sun, 24 Nov 2024 UTC via a CHANG ZHENG 2C launch vehicle from the Jiuquan Satellite Launch Center, China (JSC). Debris objects in space refer to the collection of defunct objects orbiting the Earth. Examples of debris include non-operational satellites, rocket bodies, and fragments generated from explosions, collisions, or faulty payload assembly.

Loading next visibility...
Identifier
62078, 2024-218A
Orbit
SSO
Country
Flag of CNCN / PRC
Related business
Manufacturer
CALT
Mission
Spacecraft
Bus & Motor
CZ-2 STAGE 2, Unknown motor
Mass
~3,800 kg wet, ~3,800 kg dry
Launch date (UTC)
2024-11-24 (10 months ago)
Launch vehicle
CHANG ZHENG 2C
Launch site
Jiuquan Satellite Launch Center, China (JSC)
Object type
Payload
Rocket body
Debris
Shape & HBR
Cyl, 3.7 m
Radar Cross Section
23.715 m², Large (>1 m²)

Expand to show TLE details & history
Last TLE update: 12 hours ago

TLE from 12 hours ago
0 CZ-2C R/B
1 62078U 24218A   25260.95214572  .00005177  00000-0  23827-3 0  9995
2 62078  97.5478 270.6562 0046977 239.8539 119.8036 15.19781036 45047
Epoch: 2025-09-17T22:51Z
TLE epoch observation values (Epoch: 2025-09-17T22:51:05.39Z)
Latitude
-0.00005°
Longitude
-69.23697°
Altitude
525.78 km
Speed
7.591 km/s
True Right ascension
18h 02m 37s
True Declination
0° 00' 00"
Sunlit
Object was in daylight at epoch
Visualization orbit readout
Latitude
Unknown
Longitude
Unknown
Altitude
Unknown
Speed
Unknown
Apparent Right ascension
Unknown
Apparent Declination
Unknown
Sunlit
N/A
Visualization observer readout
Local Sidereal Time
03:39:16
Azimuth
Unknown
Elevation
Unknown
Doppler factor
Unknown
Orbital elements
Apogee altitude
535.802 km
Perigee altitude
471.146 km
Semi-major axis
6,881.611 km
Eccentricity
0.0047
Inclination
97.5478°
RAAN
270.6562°
Arg. of periapsis
239.8539°
True anomaly
120.26935°
Mean anomaly
119.8036°
Eccentric anomaly
120.03661°
Mean motion
3.80196 °/min
Orbital period
94.69 mins
BSTAR
0.00023827
Loading maneuver chart data...
Computing Atmospheric mass density...
Loading historical data...
Loading historical data...
Loading historical data...
Loading historical data...
Loading historical data...
Loading historical data...
Loading historical data...
Other satellites on launch #218 in the year 2024 (2024-11-24 UTC)

Documentation

Showing up to 5 results
|